| time (UTC) | temp C | wind direction | speed KPH | gust KPH | rain 1hr cm | rain 24hr cm | rain mn cm | humidity % | barometer mb |
| 20260504024100 | 19 | 213 | 1.6 | 29.0 | 0.00 | 0.00 | 0.00 | 21 | 1016.3 |
| 20260504023551 | 19 | 294 | 11.3 | 29.0 | 0.00 | 0.00 | 0.00 | 22 | 1016.2 |
| 20260504023057 | 19 | 238 | 4.8 | 16.1 | 0.00 | 0.00 | 0.00 | 21 | 1016.1 |
| 20260504022603 | 20 | 213 | 1.6 | 3.2 | 0.00 | 0.00 | 0.00 | 21 | 1016.2 |
| 20260504022006 | 20 | 303 | 0.0 | 0.0 | 0.00 | 0.00 | 0.00 | 21 | 1016.0 |
| 20260504021601 | 20 | 303 | 0.0 | 0.0 | 0.00 | 0.00 | 0.00 | 20 | 1016.0 |
| 20260504021004 | 20 | 303 | 0.0 | 1.6 | 0.00 | 0.00 | 0.00 | 20 | 1016.0 |
| 20260504020510 | 20 | 303 | 0.0 | 3.2 | 0.00 | 0.00 | 0.00 | 20 | 1016.0 |
| 20260504020105 | 20 | 303 | 0.0 | 3.2 | 0.00 | 0.00 | 0.00 | 20 | 1015.9 |
| 20260504015556 | 20 | 303 | 0.0 | 3.2 | 0.00 | 0.00 | 0.00 | 20 | 1015.9 |
| 20260504015102 | 20 | 303 | 0.0 | 1.6 | 0.00 | 0.00 | 0.00 | 20 | 1015.9 |
| 20260504014505 | 21 | 303 | 0.0 | 3.2 | 0.00 | 0.00 | 0.00 | 20 | 1016.0 |
| 20260504014008 | 21 | 303 | 0.0 | 3.2 | 0.00 | 0.00 | 0.00 | 20 | 1016.0 |
| 20260504013605 | 21 | 303 | 0.0 | 3.2 | 0.00 | 0.00 | 0.00 | 19 | 1015.9 |
| 20260504013103 | 21 | 303 | 0.0 | 3.2 | 0.00 | 0.00 | 0.00 | 19 | 1016.0 |
| 20260504012559 | 21 | 303 | 0.0 | 3.2 | 0.00 | 0.00 | 0.00 | 19 | 1016.0 |
| 20260504012050 | 21 | 303 | 0.0 | 3.2 | 0.00 | 0.00 | 0.00 | 19 | 1016.0 |
| 20260504011541 | 21 | 306 | 0.0 | 4.8 | 0.00 | 0.00 | 0.00 | 19 | 1016.0 |
| 20260504011048 | 21 | 306 | 1.6 | 4.8 | 0.00 | 0.00 | 0.00 | 19 | 1016.1 |
| 20260504010539 | 22 | 289 | 1.6 | 6.4 | 0.00 | 0.00 | 0.00 | 19 | 1016.0 |
| 20260504010053 | 22 | 248 | 1.6 | 8.0 | 0.00 | 0.00 | 0.00 | 18 | 1016.0 |
| 20260504005551 | 22 | 246 | 3.2 | 8.0 | 0.00 | 0.00 | 0.00 | 18 | 1016.1 |
| 20260504005059 | 22 | 213 | 1.6 | 14.5 | 0.00 | 0.00 | 0.00 | 18 | 1016.1 |
| 20260504004604 | 22 | 232 | 0.0 | 14.5 | 0.00 | 0.00 | 0.00 | 18 | 1016.2 |
| 20260504004056 | 23 | 309 | 6.4 | 12.9 | 0.00 | 0.00 | 0.00 | 17 | 1016.2 |
| 20260504003601 | 23 | 225 | 3.2 | 9.7 | 0.00 | 0.00 | 0.00 | 17 | 1016.2 |
| 20260504003006 | 23 | 234 | 4.8 | 9.7 | 0.00 | 0.00 | 0.00 | 17 | 1016.2 |
| 20260504002559 | 23 | 169 | 3.2 | 12.9 | 0.00 | 0.00 | 0.00 | 17 | 1016.2 |
| 20260504002004 | 23 | 259 | 4.8 | 14.5 | 0.00 | 0.00 | 0.00 | 17 | 1016.3 |
| 20260504001603 | 23 | 182 | 4.8 | 20.9 | 0.00 | 0.00 | 0.00 | 17 | 1016.4 |
| 20260504001104 | 23 | 171 | 14.5 | 20.9 | 0.00 | 0.00 | 0.00 | 17 | 1016.3 |
| 20260504000555 | 23 | 189 | 11.3 | 17.7 | 0.00 | 0.00 | 0.00 | 17 | 1016.3 |
| 20260504000132 | 23 | 194 | 11.3 | 16.1 | 0.00 | 0.00 | 0.00 | 17 | 1016.3 |
| 20260503235504 | 23 | 179 | 8.0 | 16.1 | 0.00 | 0.00 | 0.00 | 16 | 1016.3 |
| 20260503235101 | 23 | 207 | 6.4 | 14.5 | 0.00 | 0.00 | 0.00 | 17 | 1016.4 |
| 20260503234505 | 23 | 246 | 3.2 | 14.5 | 0.00 | 0.00 | 0.00 | 17 | 1016.5 |
| 20260503234058 | 23 | 272 | 6.4 | 14.5 | 0.00 | 0.00 | 0.00 | 16 | 1016.6 |
| 20260503233604 | 23 | 289 | 6.4 | 16.1 | 0.00 | 0.00 | 0.00 | 16 | 1016.5 |
| 20260503233004 | 24 | 284 | 6.4 | 12.9 | 0.00 | 0.00 | 0.00 | 16 | 1016.6 |
| 20260503232514 | 24 | 180 | 4.8 | 9.7 | 0.00 | 0.00 | 0.00 | 16 | 1016.6 |
| 20260503232002 | 25 | 249 | 4.8 | 14.5 | 0.00 | 0.00 | 0.00 | 16 | 1016.7 |
| 20260503231514 | 24 | 224 | 6.4 | 16.1 | 0.00 | 0.00 | 0.00 | 16 | 1016.7 |
| 20260503231016 | 24 | 183 | 4.8 | 14.5 | 0.00 | 0.00 | 0.00 | 16 | 1016.8 |
| 20260503230524 | 23 | 207 | 4.8 | 17.7 | 0.00 | 0.00 | 0.00 | 16 | 1016.8 |
| 20260503230028 | 23 | 281 | 11.3 | 20.9 | 0.00 | 0.00 | 0.00 | 16 | 1016.9 |
| 20260503225533 | 23 | 203 | 9.7 | 17.7 | 0.00 | 0.00 | 0.00 | 16 | 1016.9 |
| 20260503225039 | 24 | 304 | 6.4 | 17.7 | 0.00 | 0.00 | 0.00 | 16 | 1017.0 |
| 20260503224547 | 25 | 241 | 11.3 | 25.7 | 0.00 | 0.00 | 0.00 | 15 | 1017.1 |
| 20260503224041 | 25 | 170 | 6.4 | 32.2 | 0.00 | 0.00 | 0.00 | 15 | 1017.2 |
| 20260503223545 | 25 | 206 | 1.6 | 12.9 | 0.00 | 0.00 | 0.00 | 15 | 1017.2 |
| 20260503223050 | 24 | 300 | 6.4 | 19.3 | 0.00 | 0.00 | 0.00 | 16 | 1017.3 |
| 20260503222557 | 24 | 220 | 3.2 | 19.3 | 0.00 | 0.00 | 0.00 | 15 | 1017.4 |
| 20260503222048 | 24 | 211 | 6.4 | 19.3 | 0.00 | 0.00 | 0.00 | 16 | 1017.4 |
| 20260503221555 | 23 | 5 | 9.7 | 22.5 | 0.00 | 0.00 | 0.00 | 15 | 1017.6 |
| 20260503221100 | 24 | 328 | 4.8 | 22.5 | 0.00 | 0.00 | 0.00 | 16 | 1017.7 |
| 20260503220503 | 23 | 161 | 4.8 | 11.3 | 0.00 | 0.00 | 0.00 | 16 | 1017.7 |
| 20260503220121 | 23 | 197 | 6.4 | 14.5 | 0.00 | 0.00 | 0.00 | 16 | 1017.8 |
| 20260503215604 | 24 | 159 | 6.4 | 20.9 | 0.00 | 0.00 | 0.00 | 15 | 1017.9 |
| 20260503215009 | 25 | 161 | 12.9 | 20.9 | 0.00 | 0.00 | 0.00 | 14 | 1017.8 |
| 20260503214604 | 25 | 325 | 4.8 | 17.7 | 0.00 | 0.00 | 0.00 | 15 | 1018.0 |
| 20260503214004 | 25 | 204 | 4.8 | 16.1 | 0.00 | 0.00 | 0.00 | 16 | 1018.0 |
| 20260503213559 | 24 | 269 | 8.0 | 16.1 | 0.00 | 0.00 | 0.00 | 15 | 1018.1 |
| 20260503213105 | 23 | 282 | 9.7 | 16.1 | 0.00 | 0.00 | 0.00 | 16 | 1018.2 |
| 20260503212556 | 23 | 312 | 4.8 | 20.9 | 0.00 | 0.00 | 0.00 | 16 | 1018.2 |
| 20260503212047 | 23 | 30 | 12.9 | 20.9 | 0.00 | 0.00 | 0.00 | 16 | 1018.3 |
| 20260503211554 | 22 | 294 | 11.3 | 17.7 | 0.00 | 0.00 | 0.00 | 16 | 1018.4 |
| 20260503211043 | 22 | 327 | 8.0 | 17.7 | 0.00 | 0.00 | 0.00 | 16 | 1018.4 |
| 20260503210535 | 21 | 279 | 1.6 | 6.4 | 0.00 | 0.00 | 0.00 | 17 | 1018.5 |
| 20260503210042 | 21 | 283 | 1.6 | 6.4 | 0.00 | 0.00 | 0.00 | 17 | 1018.6 |
| 20260503205533 | 21 | 325 | 3.2 | 8.0 | 0.00 | 0.00 | 0.00 | 17 | 1018.8 |
| 20260503205039 | 21 | 292 | 3.2 | 14.5 | 0.00 | 0.00 | 0.00 | 17 | 1018.9 |
| 20260503204545 | 22 | 263 | 6.4 | 17.7 | 0.00 | 0.00 | 0.00 | 17 | 1018.9 |
| 20260503204051 | 22 | 327 | 8.0 | 22.5 | 0.00 | 0.00 | 0.00 | 17 | 1018.9 |
| 20260503203542 | 22 | 298 | 8.0 | 17.7 | 0.00 | 0.00 | 0.00 | 16 | 1019.0 |
| 20260503203054 | 22 | 343 | 8.0 | 16.1 | 0.00 | 0.00 | 0.00 | 16 | 1019.0 |
| 20260503202558 | 22 | 115 | 4.8 | 14.5 | 0.00 | 0.00 | 0.00 | 17 | 1019.1 |
| 20260503202104 | 22 | 360 | 4.8 | 19.3 | 0.00 | 0.00 | 0.00 | 17 | 1019.3 |
| 20260503201506 | 22 | 30 | 6.4 | 19.3 | 0.00 | 0.00 | 0.00 | 17 | 1019.3 |
| 20260503201011 | 23 | 5 | 6.4 | 16.1 | 0.00 | 0.00 | 0.00 | 17 | 1019.5 |
| 20260503200605 | 23 | 60 | 9.7 | 14.5 | 0.00 | 0.00 | 0.00 | 17 | 1019.5 |
| 20260503200007 | 22 | 153 | 3.2 | 17.7 | 0.00 | 0.00 | 0.00 | 16 | 1019.6 |
| 20260503195602 | 22 | 26 | 4.8 | 20.9 | 0.00 | 0.00 | 0.00 | 16 | 1019.7 |
| 20260503195002 | 23 | 13 | 3.2 | 20.9 | 0.00 | 0.00 | 0.00 | 16 | 1019.7 |
| 20260503194602 | 23 | 180 | 1.6 | 11.3 | 0.00 | 0.00 | 0.00 | 16 | 1019.8 |
| 20260503194104 | 23 | 269 | 4.8 | 11.3 | 0.00 | 0.00 | 0.00 | 16 | 1019.9 |
| 20260503193506 | 23 | 211 | 0.0 | 17.7 | 0.00 | 0.00 | 0.00 | 15 | 1020.1 |
| 20260503193102 | 23 | 190 | 3.2 | 17.7 | 0.00 | 0.00 | 0.00 | 16 | 1020.1 |
| 20260503192502 | 23 | 267 | 6.4 | 16.1 | 0.00 | 0.00 | 0.00 | 16 | 1020.2 |
| 20260503192058 | 23 | 247 | 3.2 | 16.1 | 0.00 | 0.00 | 0.00 | 17 | 1020.3 |
| 20260503191603 | 23 | 206 | 6.4 | 16.1 | 0.00 | 0.00 | 0.00 | 17 | 1020.3 |
| 20260503191054 | 23 | 242 | 4.8 | 24.1 | 0.00 | 0.00 | 0.00 | 17 | 1020.4 |
| 20260503190548 | 23 | 186 | 8.0 | 24.1 | 0.00 | 0.00 | 0.00 | 17 | 1020.4 |
| 20260503190048 | 22 | 333 | 1.6 | 14.5 | 0.00 | 0.00 | 0.00 | 18 | 1020.5 |
| 20260503185554 | 22 | 178 | 8.0 | 16.1 | 0.00 | 0.00 | 0.00 | 18 | 1020.8 |
| 20260503185104 | 22 | 355 | 8.0 | 16.1 | 0.00 | 0.00 | 0.00 | 19 | 1020.8 |
| 20260503184603 | 22 | 134 | 4.8 | 16.1 | 0.00 | 0.00 | 0.00 | 18 | 1021.0 |
| 20260503184101 | 22 | 221 | 6.4 | 17.7 | 0.00 | 0.00 | 0.00 | 19 | 1021.1 |
| 20260503183608 | 22 | 189 | 6.4 | 22.5 | 0.00 | 0.00 | 0.00 | 18 | 1021.1 |
| 20260503183007 | 22 | 127 | 8.0 | 19.3 | 0.00 | 0.00 | 0.00 | 20 | 1021.2 |
| 20260503182603 | 22 | 112 | 3.2 | 16.1 | 0.00 | 0.00 | 0.00 | 20 | 1021.3 |
| 20260503182005 | 22 | 211 | 11.3 | 16.1 | 0.00 | 0.00 | 0.00 | 20 | 1021.4 |
| 20260503181603 | 22 | 173 | 1.6 | 14.5 | 0.00 | 0.00 | 0.00 | 20 | 1021.5 |
| 20260503181106 | 21 | 209 | 3.2 | 16.1 | 0.00 | 0.00 | 0.00 | 20 | 1021.6 |
| 20260503180512 | 21 | 110 | 6.4 | 19.3 | 0.00 | 0.00 | 0.00 | 20 | 1021.7 |
| 20260503180008 | 21 | 211 | 6.4 | 19.3 | 0.00 | 0.00 | 0.00 | 20 | 1021.7 |
| 20260503175602 | 21 | 55 | 4.8 | 17.7 | 0.00 | 0.00 | 0.00 | 21 | 1021.7 |
| 20260503175006 | 21 | 159 | 8.0 | 14.5 | 0.00 | 0.00 | 0.00 | 22 | 1021.8 |
| 20260503174601 | 21 | 105 | 6.4 | 19.3 | 0.00 | 0.00 | 0.00 | 23 | 1021.9 |
| 20260503174006 | 20 | 141 | 11.3 | 20.9 | 0.00 | 0.00 | 0.00 | 23 | 1021.8 |
| 20260503173559 | 20 | 110 | 3.2 | 16.1 | 0.00 | 0.00 | 0.00 | 25 | 1022.0 |
| 20260503173114 | 20 | 102 | 8.0 | 16.1 | 0.00 | 0.00 | 0.00 | 26 | 1022.1 |
| 20260503172507 | 20 | 200 | 6.4 | 17.7 | 0.00 | 0.00 | 0.00 | 25 | 1022.2 |
| 20260503172105 | 20 | 143 | 8.0 | 17.7 | 0.00 | 0.00 | 0.00 | 27 | 1022.2 |
| 20260503171506 | 19 | 93 | 6.4 | 17.7 | 0.00 | 0.00 | 0.00 | 27 | 1022.2 |
| 20260503171014 | 19 | 38 | 9.7 | 17.7 | 0.00 | 0.00 | 0.00 | 27 | 1022.3 |
| 20260503170518 | 19 | 113 | 6.4 | 16.1 | 0.00 | 0.00 | 0.00 | 28 | 1022.4 |
| 20260503160113 | 16 | 119 | 11.3 | 19.3 | 0.00 | 0.00 | 0.00 | 33 | 1022.8 |
| 20260503151009 | 13 | 94 | 9.7 | 19.3 | 0.00 | 0.00 | 0.00 | 37 | 1023.1 |
| 20260503150605 | 13 | 84 | 12.9 | 20.9 | 0.00 | 0.00 | 0.00 | 37 | 1023.1 |
| 20260503131048 | 7 | 68 | 8.0 | 16.1 | 0.00 | 0.00 | 0.00 | 42 | 1022.7 |
| 20260503130556 | 7 | 42 | 6.4 | 16.1 | 0.00 | 0.00 | 0.00 | 41 | 1022.7 |
| 20260503110603 | 6 | 106 | 4.8 | 12.9 | 0.00 | 0.00 | 0.00 | 41 | 1022.5 |
| 20260503081516 | 8 | 113 | 3.2 | 6.4 | 0.00 | 0.00 | 0.00 | 37 | 1022.4 |
| 20260503081015 | 8 | 107 | 4.8 | 6.4 | 0.00 | 0.00 | 0.00 | 38 | 1022.5 |
| 20260503080521 | 8 | 110 | 4.8 | 6.4 | 0.00 | 0.00 | 0.00 | 37 | 1022.5 |
| 20260503072544 | 8 | 98 | 4.8 | 6.4 | 0.00 | 0.00 | 0.00 | 35 | 1022.5 |
| 20260503072050 | 9 | 94 | 4.8 | 6.4 | 0.00 | 0.00 | 0.00 | 34 | 1022.6 |
| 20260503071549 | 9 | 105 | 4.8 | 6.4 | 0.00 | 0.00 | 0.00 | 34 | 1022.5 |
| 20260503071049 | 9 | 103 | 3.2 | 6.4 | 0.00 | 0.00 | 0.00 | 33 | 1022.6 |
| 20260503070555 | 9 | 111 | 3.2 | 9.7 | 0.00 | 0.00 | 0.00 | 33 | 1022.6 |
| 20260503060110 | 11 | 98 | 3.2 | 4.8 | 0.00 | 0.00 | 0.00 | 30 | 1022.2 |
| 20260503055103 | 11 | 90 | 3.2 | 4.8 | 0.00 | 0.00 | 0.00 | 30 | 1022.2 |
| 20260503054506 | 11 | 93 | 3.2 | 4.8 | 0.00 | 0.00 | 0.00 | 30 | 1022.1 |
| 20260503054103 | 11 | 88 | 3.2 | 4.8 | 0.00 | 0.00 | 0.00 | 30 | 1022.0 |
| 20260503053505 | 12 | 108 | 3.2 | 4.8 | 0.00 | 0.00 | 0.00 | 30 | 1022.0 |
| 20260503053101 | 12 | 108 | 3.2 | 4.8 | 0.00 | 0.00 | 0.00 | 30 | 1022.0 |
| 20260503052505 | 12 | 136 | 3.2 | 6.4 | 0.00 | 0.00 | 0.00 | 30 | 1022.0 |
| 20260503052009 | 12 | 146 | 4.8 | 6.4 | 0.00 | 0.00 | 0.00 | 30 | 1021.9 |
| 20260503051616 | 12 | 175 | 1.6 | 6.4 | 0.00 | 0.00 | 0.00 | 30 | 1022.0 |
| 20260503051006 | 12 | 109 | 0.0 | 3.2 | 0.00 | 0.00 | 0.00 | 29 | 1021.9 |
| 20260503050605 | 12 | 109 | 0.0 | 3.2 | 0.00 | 0.00 | 0.00 | 29 | 1021.8 |
| 20260503050053 | 12 | 109 | 0.0 | 3.2 | 0.00 | 0.00 | 0.00 | 28 | 1021.9 |
| 20260503045601 | 12 | 109 | 0.0 | 3.2 | 0.00 | 0.00 | 0.00 | 28 | 1021.9 |
| 20260503045002 | 13 | 109 | 0.0 | 3.2 | 0.00 | 0.00 | 0.00 | 28 | 1021.8 |
| 20260503044513 | 13 | 109 | 0.0 | 1.6 | 0.00 | 0.00 | 0.00 | 28 | 1021.8 |
| 20260503044105 | 13 | 159 | 0.0 | 0.0 | 0.00 | 0.00 | 0.00 | 28 | 1021.9 |
| 20260503043506 | 13 | 159 | 0.0 | 0.0 | 0.00 | 0.00 | 0.00 | 28 | 1021.9 |
| 20260503043105 | 13 | 159 | 0.0 | 0.0 | 0.00 | 0.00 | 0.00 | 28 | 1021.8 |
| 20260503042552 | 13 | 159 | 0.0 | 0.0 | 0.00 | 0.00 | 0.00 | 28 | 1021.8 |
| 20260503042101 | 13 | 159 | 0.0 | 0.0 | 0.00 | 0.00 | 0.00 | 28 | 1021.8 |
| 20260503041502 | 13 | 159 | 0.0 | 0.0 | 0.00 | 0.00 | 0.00 | 28 | 1021.8 |
| 20260503041011 | 13 | 159 | 0.0 | 0.0 | 0.00 | 0.00 | 0.00 | 28 | 1021.8 |
| 20260503040606 | 13 | 159 | 0.0 | 0.0 | 0.00 | 0.00 | 0.00 | 28 | 1021.8 |
| 20260503040008 | 13 | 159 | 0.0 | 0.0 | 0.00 | 0.00 | 0.00 | 28 | 1021.8 |
| 20260503035604 | 13 | 159 | 0.0 | 0.0 | 0.00 | 0.00 | 0.00 | 27 | 1021.8 |
| 20260503035005 | 13 | 159 | 0.0 | 0.0 | 0.00 | 0.00 | 0.00 | 27 | 1021.6 |
| 20260503034512 | 13 | 159 | 0.0 | 0.0 | 0.00 | 0.00 | 0.00 | 27 | 1021.6 |
| 20260503034002 | 13 | 159 | 0.0 | 0.0 | 0.00 | 0.00 | 0.00 | 27 | 1021.6 |
| 20260503033514 | 13 | 159 | 0.0 | 0.0 | 0.00 | 0.00 | 0.00 | 26 | 1021.7 |
| 20260503033001 | 14 | 159 | 0.0 | 0.0 | 0.00 | 0.00 | 0.00 | 26 | 1021.6 |
| 20260503032557 | 14 | 159 | 0.0 | 0.0 | 0.00 | 0.00 | 0.00 | 26 | 1021.5 |
| 20260503032106 | 14 | 159 | 0.0 | 0.0 | 0.00 | 0.00 | 0.00 | 26 | 1021.5 |
| 20260503031556 | 15 | 159 | 0.0 | 0.0 | 0.00 | 0.00 | 0.00 | 25 | 1021.5 |
| 20260503031047 | 15 | 159 | 0.0 | 1.6 | 0.00 | 0.00 | 0.00 | 25 | 1021.5 |
| 20260503030554 | 15 | 159 | 0.0 | 1.6 | 0.00 | 0.00 | 0.00 | 25 | 1021.3 |
| 20260503030105 | 15 | 159 | 0.0 | 1.6 | 0.00 | 0.00 | 0.00 | 25 | 1021.3 |
| 20260503025503 | 15 | 159 | 0.0 | 1.6 | 0.00 | 0.00 | 0.00 | 24 | 1021.3 |
| 20260503025009 | 15 | 159 | 0.0 | 1.6 | 0.00 | 0.00 | 0.00 | 24 | 1021.2 |
| 20260503024524 | 16 | 159 | 0.0 | 3.2 | 0.00 | 0.00 | 0.00 | 24 | 1021.1 |